Zurück zum Katalog

NANOSAT(1)

AktivWissenschaftSSO
NORAD 28493·PAYLOAD·🇪🇸 Spain

Gestartet Dec 18, 2004 von Guiana Space Centre

Loading…

Nächste Überflüge (nächste 24 Stunden)

TLE

AktuellSource: Space-Track

Epoche: Sep 14, 2026, 07:55 UTC

1 28493U 04049B   26257.33026616  .00000747  00000-0  10531-3 0  9993
2 28493  98.2407  36.2450 0004311  24.0739 336.0673 14.80307728168634

Verfolge NANOSAT(1) in Echtzeit mit AllMySat

Download on the App Store